Weather History for Lufkin, TX

Change the Weather History Date:

Monday, November 8, 2010

  Actual Average Record
Temperature  
Mean Temperature 57 °F 61 °F  
Max Temperature 76 °F 72 °F 89 °F (1927)
Min Temperature 37 °F 49 °F 28 °F (1951)
Degree Days  
Heating Degree Days 8 6  
Month to date heating degree days 68 42  
Since 1 July heating degree days 97 108  
Cooling Degree Days 0 2  
Month to date cooling degree days 12 16  
Year to date cooling degree days 3142 2560  
Growing Degree Days 6 (Base 50)    
Moisture  
Dew Point 44 °F    
Average Humidity 63    
Maximum Humidity 92    
Minimum Humidity 33    
Precipitation  
Precipitation 0.00 in 0.17 in 2.15 in (1990)
Month to date precipitation 0.93 1.35  
Year to date precipitation 26.94 40.85  
Snow  
Snow 0.00 in - - ()
Month to date snowfall 0.0  
Since 1 July snowfall 0.0  
Since 1 September snowfall 0.0  
Snow Depth 0.00 in    
Sea Level Pressure  
Sea Level Pressure 30.12 in    
Wind  
Wind Speed 4 mph (SSE)    
Max Wind Speed 13 mph    
Max Gust Speed 17 mph    
Visibility 10 miles    
Events      
T = Trace of Precipitation, MM = Missing Value Source: NWS Daily Summary

Daily Weather History Graph

Daily Weather History Graph

Search for Another Location

Airport:

Trip Planner

Search our weather history database for the weather conditions in past years. The results will help you decide how hot, cold, wet, or windy it might be!

Date:

Astronomy

Nov. 08, 2010 Rise Set
Actual Time 6:40 AM CST 5:24 PM CST
Civil Twilight 6:14 AM CST 5:50 PM CST
Nautical Twilight 5:46 AM CST 6:19 PM CST
Astronomical Twilight 5:17 AM CST 6:47 PM CST
Moon 9:17 AM CST (11/8) 7:32 PM CST (11/8)
Length of Visible Light 11h 35m
Length of Day
10h 44m
Waxing Crescent, 8% of the Moon is Illuminated
Nov 8
Waxing Crescent
Nov 13
First Quarter
Nov 21
Full
Nov 28
Last Quarter
Dec 5
New

Hourly Weather History & Observations

Time (CST) Temp. Windchill Dew Point Humidity Pressure Visibility Wind Dir Wind Speed Gust Speed Precip Events Conditions
12:53 AM 44.1 °F - 36.0 °F 73% 30.22 in 10.0 mi Calm Calm - N/A   Clear
1:53 AM 41.0 °F - 36.0 °F 82% 30.21 in 10.0 mi Calm Calm - N/A   Clear
2:53 AM 42.1 °F - 36.0 °F 79% 30.20 in 10.0 mi Calm Calm - N/A   Clear
3:53 AM 39.9 °F - 36.0 °F 86% 30.19 in 10.0 mi Calm Calm - N/A   Clear
4:53 AM 39.9 °F - 36.0 °F 86% 30.19 in 10.0 mi Calm Calm - N/A   Clear
5:53 AM 39.0 °F 36.8 °F 35.1 °F 86% 30.18 in 10.0 mi East 3.5 mph - N/A   Clear
6:53 AM 37.9 °F - 35.1 °F 89% 30.19 in 10.0 mi Calm Calm - N/A   Clear
7:53 AM 45.0 °F - 39.9 °F 82% 30.20 in 10.0 mi Calm Calm - N/A   Clear
8:53 AM 55.0 °F - 45.0 °F 69% 30.20 in 10.0 mi SSE 6.9 mph - N/A   Clear
9:53 AM 64.0 °F - 45.0 °F 50% 30.19 in 10.0 mi South 9.2 mph - N/A   Clear
10:53 AM 68.0 °F - 46.9 °F 47% 30.17 in 10.0 mi South 11.5 mph - N/A   Clear
11:53 AM 72.0 °F - 45.0 °F 38% 30.14 in 10.0 mi SW 8.1 mph - N/A   Clear
12:53 PM 75.0 °F - 44.1 °F 33% 30.10 in 10.0 mi South 9.2 mph - N/A   Clear
1:53 PM 73.4 °F - 44.6 °F 36% 30.07 in 10.0 mi Variable 3.5 mph - N/A   Clear
2:53 PM 75.9 °F - 46.0 °F 35% 30.04 in 10.0 mi SSE 8.1 mph - N/A   Clear
3:53 PM 75.0 °F - 46.9 °F 37% 30.03 in 10.0 mi SSE 9.2 mph 17.3 mph N/A   Clear
4:53 PM 72.0 °F - 46.9 °F 41% 30.02 in 10.0 mi SSE 6.9 mph - N/A   Clear
5:53 PM 64.0 °F - 48.0 °F 56% 30.03 in 10.0 mi ESE 3.5 mph - N/A   Clear
6:53 PM 62.1 °F - 48.0 °F 60% 30.03 in 10.0 mi Calm Calm - N/A   Clear
7:53 PM 57.9 °F - 48.0 °F 70% 30.03 in 10.0 mi SE 3.5 mph - N/A   Clear
8:53 PM 59.0 °F - 50.0 °F 72% 30.04 in 10.0 mi SSE 8.1 mph - N/A   Clear
9:53 PM 55.9 °F - 51.1 °F 84% 30.05 in 10.0 mi SSE 5.8 mph - N/A   Clear
10:53 PM 55.0 °F - 51.1 °F 86% 30.04 in 10.0 mi SE 4.6 mph - N/A   Clear
11:53 PM 53.1 °F - 51.1 °F 93% 30.03 in 10.0 mi SE 4.6 mph - N/A   Clear